{"data":{"norad_id":62013,"intl_designator":"2024-213F","name":"STARLINK-11377 [DTC]","alt_names":[],"object_type":"PAYLOAD","status":"ACTIVE","operator":null,"country":"US","launch_date":"2024-11-18","launch_site_code":"AFWTR","launch_vehicle":null,"mission":null,"orbit_class":"UNKNOWN","rcs_meters":null,"size_class":null,"mass_kg":null,"dimensions":null,"purposes":["comms"],"wikipedia_slug":null,"has_3d_model":false,"image_url":null,"decayed_at":null,"tle_current":{"epoch":"2026-09-21T21:34:26.313024Z","epoch_age_seconds":64721,"freshness":"FRESH","line1":"1 62013U 24213F   26264.89891566  .00152277  00000+0  12330-2 0  9990","line2":"2 62013  53.1578 153.9100 0001107  41.8829 318.2274 15.69824521105739","mean_motion":15.69824521,"eccentricity":0.0001107,"inclination_deg":53.1578,"raan_deg":153.91,"arg_perigee_deg":41.8829,"mean_anomaly_deg":318.2274,"bstar":0.001233,"rev_number":10573,"period_min":91.729997890637,"perigee_km":358.65320983571,"apogee_km":360.14490031831,"semimajor_km":6737.536055077,"source":"CELESTRAK","updated_at":"2026-09-22T09:00:49.483069Z"}}}